HAIYANG-2A

Last updated on Mon Sep 07 2026 00:02:45 GMT+0000 (Coordinated Universal Time)

1 37781U 11043A 26249.58607704 -.00000108 00000+0 -71750-4 0 9999 2 37781 99.3451 250.2776 0003851 140.1194 220.0237 13.71578873757820
UTC large
Height (km)
Speed (km/s)
/
Latitude / Longitude
Inclination (degrees)
Orbital Period (minutes)
Azimuth
Elevation
Range (km)
Doppler Factor

Next 0 passes for location: London (51.5072 / 0.1276)

No passes found over London.
HAIYANG-2A